Regional Weather Roundup
Issued by NWS

Home | Current Version | Previous Version | Graphics & Text | Print | Product List | Glossary On
Versions: 1 2 3 4 5 6 7 8 9 10 11 12 13 14 15 16 17 18 19 20 21 22 23 24 25 26 27 28 29 30 31 32 33 34 35 36 37 38 39 40 41 42 43 44 45 46 47 48 49 50
000
ASUS43 KLOT 192210
RWRIL

ILLINOIS REGIONAL WEATHER ROUNDUP
NATIONAL WEATHER SERVICE CHICAGO/ROMEOVILLE IL
500 PM CDT SAT APR 19 2014

NOTE: "FAIR" INDICATES FEW OR NO CLOUDS BELOW 12,000 FEET WITH NO
SIGNIFICANT WEATHER AND/OR OBSTRUCTIONS TO VISIBILITY.

* THESE STATIONS ARE NOT UNDER NWS QUALITY CONTROL. THEY ALSO MAY NOT
  REPORT WEATHER SUCH AS PRECIPITATION OR FOG.

ILZ001-002-007-009-015-016-024-192300-
NORTHWEST ILLINOIS

CITY           SKY/WX    TMP DP  RH WIND       PRES   REMARKS
MOLINE         MOSUNNY   73  35  25 SE17      30.14F
STERLING*      PTSUNNY   72  34  25 SE9G16    30.18F
SAVANNA*       PTSUNNY   72  31  22 S13G18    30.17S
$$

ILZ003-004-008-010-011-017-018-192300-
NORTH CENTRAL ILLINOIS

CITY           SKY/WX    TMP DP  RH WIND       PRES   REMARKS
ROCKFORD       CLOUDY    69  34  27 S14       30.22F
FREEPORT*      PTSUNNY   69  32  25 SE16      30.21F
ROCHELLE*      PTSUNNY   69  32  25 S18       30.21F
DE KALB*       PTSUNNY   65  31  27 S13G18    30.22F
PERU*          MOSUNNY   72  33  24 S8G21     30.20F
$$

ILZ005-006-012>014-019>023-192300-
NORTHEAST ILLINOIS

CITY           SKY/WX    TMP DP  RH WIND       PRES   REMARKS
CHICAGO-OHARE  PTSUNNY   65  36  34 SE12      30.23F
CHICAGO-MIDWAY CLOUDY    63  38  39 E10       30.25F
AURORA         MOSUNNY   69  33  26 SE14      30.22F
LANSING*       SUNNY     66  34  29 SE9       30.24F
WAUKEGAN       MOSUNNY   51  36  56 E7        30.25F
DUPAGE AIRPORT MOSUNNY   68  33  27 S14       30.22F
KANKAKEE*      SUNNY     68  38  33 SE13G20   30.24F
WHEELING       SUNNY     61  39  44 E9        30.26F
MORRIS*        MOSUNNY   70  22  16 SE10G16   30.22F
ROMEOVILLE*    MOSUNNY   67  32  27 SE9       30.24S
NORTHERLY ISL    N/A     52  38  58 N6          N/A
$$

LMZ740>746-192300-
SOUTHERN LAKE MICHIGAN

STATION/POSITION SKY/WX   TEMP    WIND        PRES    VSBY  WAVE
                          AIR SEA DIR/SP/G                  HT/PER
                          (F)     (DEG/KT/KT) (MB)    (MI)  (FT/S)
WAUKEGAN HARBOR            42      50/  3/  4 1026.1F
HARRISON CRIB              44     360/  5/  5   N/A
BURNHAM HARBOR             51      10/  5/  7   N/A
CALUMET HARBOR             49      10/  5/  7 1025.4S
MICHIGAN CITY              64     100/  6/ 10   N/A
$$

ILZ025>027-034>036-040-047-049-050-058-095>099-192300-
WEST-CENTRAL ILLINOIS

CITY           SKY/WX    TMP DP  RH WIND       PRES   REMARKS
QUINCY         MOSUNNY   74  36  25 S13       30.15F
GALESBURG*     MOSUNNY   71  39  31 SE8G17    30.16F
MACOMB*        PTSUNNY   75  35  23 S14       30.18F
JACKSONVILLE*  PTSUNNY   73  39  28 SE8       30.20S
PITTSFIELD*    PTSUNNY   76  34  21 SE10G18   30.17F
$$

ILZ028>032-037-038-041>044-048-051>054-059>061-192300-
CENTRAL ILLINOIS

CITY           SKY/WX    TMP DP  RH WIND       PRES   REMARKS
PONTIAC        SUNNY     73  32  21 SE8G16    30.22F
BLOOMINGTON    SUNNY     70  31  23 SE8       30.23F
DECATUR        SUNNY     73  30  20 SE7       30.21F
PEORIA         PTSUNNY   72  34  24 SE9G20    30.19F
LACON*         MOSUNNY   71  33  24 S9        30.19F
LINCOLN*       SUNNY     74  33  21 S7        30.19F
SPRINGFIELD    SUNNY     73  37  27 SE6       30.20F
TAYLORVILLE    SUNNY     72  37  28 SE5       30.20F
$$

ILZ033-039-045-046-055>057-062-063-192300-
EAST-CENTRAL ILLINOIS

CITY           SKY/WX    TMP DP  RH WIND       PRES   REMARKS
CHAMPAIGN      MOSUNNY   73  33  23 SE10      30.22F
RANTOUL*       MOSUNNY   73  31  21 CALM      30.23F
MATTOON        SUNNY     70  38  31 S8        30.21F
PARIS*         SUNNY     71  38  29 NE3       30.22F
$$

ILZ079-100>102-192300-
SOUTHWEST ILLINOIS

CITY           SKY/WX    TMP DP  RH WIND       PRES   REMARKS
BELLEVILLE     MOSUNNY   74  47  37 VRB2      30.18F
CAHOKIA*       MOSUNNY   74  44  34 S8        30.18F
SPARTA*        SUNNY     72  43  35 E6        30.19F
$$

ILZ064>066-069>071-074>076-080>082-084>086-088>090-092>094-192300-
SOUTH-CENTRAL ILLINOIS

CITY           SKY/WX    TMP DP  RH WIND       PRES   REMARKS
CARBONDALE     SUNNY     74  41  30 VRB3      30.18S
CAIRO*         SUNNY     80  38  22 NE8       30.16S
MARION         SUNNY     75  41  29 SE6       30.19S
MT. VERNON     SUNNY     73  43  33 NE3       30.20F
CENTRALIA*       N/A     73  38  28 CALM      30.20S
SALEM*         SUNNY     74  45  35 SE3       30.20F
METROPOLIS*    SUNNY     75  33  21 N6        30.16S
$$

ILZ067-068-072-073-078-083-087-091-192300-
SOUTHEAST ILLINOIS

CITY           SKY/WX    TMP DP  RH WIND       PRES   REMARKS
FAIRFIELD*     SUNNY     73  37  27 SE8       30.20S
HARRISBURG*    SUNNY     73  42  32 NE6       30.20S
ROBINSON*      SUNNY     74  41  30 E6        30.21F
CARMI*         SUNNY     75  42  30 NE6       30.19F
$$

ABBREVIATIONS USED IN REMARKS
   TC - TEMPERATURE IN CELSIUS
  WCI - WIND CHILL INDEX
   HX - HEAT INDEX
  VSB - VISIBILITY
$$




USA.gov is the U.S. government's official web portal to all federal, state and local government web resources and services.